TIANLIAN 1-04

Last updated on Sat Aug 15 2026 00:03:00 GMT+0000 (Coordinated Universal Time)

1 41869U 16072A 26226.60294557 .00000015 00000+0 00000+0 0 9994 2 41869 1.0136 82.4536 0045697 92.9695 181.4320 1.00271025 35881
UTC large
Height (km)
Speed (km/s)
/
Latitude / Longitude
Inclination (degrees)
Orbital Period (minutes)
Azimuth
Elevation
Range (km)
Doppler Factor

Next 0 passes for location: London (51.5072 / 0.1276)

No passes found over London.
TIANLIAN 1-04